Time,TemperatureF,DewpointF,PressureIn,WindDirection,WindDirectionDegrees,WindSpeedMPH,WindSpeedGustMPH,Humidity,HourlyPrecipIn,Conditions,Clouds,dailyrainin,SolarRadiationWatts/m^2,SoftwareType,DateUTC
2013-09-29 00:00:00,57.7,52.6,30.25,SE,132,0.0,0.0,83,0.00,,,0.00,1760,WeatherCatV1.15B25,2013-09-29 04:00:00,
2013-09-29 00:05:00,57.7,52.6,30.24,SE,133,0.0,0.0,83,0.00,,,0.00,1760,WeatherCatV1.15B25,2013-09-29 04:05:00,
2013-09-29 00:10:00,57.7,52.9,30.24,SE,133,0.0,0.0,84,0.00,,,0.00,1760,WeatherCatV1.15B25,2013-09-29 04:10:00,
2013-09-29 00:15:00,57.7,52.9,30.24,SE,133,0.0,0.0,84,0.00,,,0.00,1760,WeatherCatV1.15B25,2013-09-29 04:15:00,
2013-09-29 00:20:00,57.6,52.8,30.24,SE,133,0.0,0.0,84,0.00,,,0.00,1760,WeatherCatV1.15B25,2013-09-29 04:20:00,
2013-09-29 00:25:00,57.6,52.8,30.24,SE,133,0.0,0.0,84,0.00,,,0.00,1760,WeatherCatV1.15B25,2013-09-29 04:25:00,
2013-09-29 00:30:00,57.6,53.1,30.24,SE,133,0.0,0.0,85,0.00,,,0.00,1760,WeatherCatV1.15B25,2013-09-29 04:30:00,
2013-09-29 00:35:00,57.5,53.0,30.24,SE,133,0.0,0.0,85,0.00,,,0.00,1760,WeatherCatV1.15B25,2013-09-29 04:35:00,
2013-09-29 00:40:00,57.5,53.3,30.24,SE,133,0.0,0.0,86,0.00,,,0.00,1760,WeatherCatV1.15B25,2013-09-29 04:40:00,
2013-09-29 00:45:00,57.4,53.2,30.24,SE,133,0.0,0.0,86,0.00,,,0.00,1760,WeatherCatV1.15B25,2013-09-29 04:45:00,
2013-09-29 00:50:00,57.3,53.1,30.24,SE,133,0.0,0.0,86,0.00,,,0.00,1760,WeatherCatV1.15B25,2013-09-29 04:50:00,
2013-09-29 00:55:00,57.2,53.0,30.24,SE,133,0.0,0.0,86,0.00,,,0.00,1760,WeatherCatV1.15B25,2013-09-29 04:55:00,
2013-09-29 01:00:00,57.1,52.9,30.24,SE,133,0.0,0.0,86,0.00,,,0.00,1760,WeatherCatV1.15B25,2013-09-29 05:00:00,
2013-09-29 01:05:00,57.1,52.9,30.24,SE,133,0.0,0.0,86,0.00,,,0.00,1760,WeatherCatV1.15B25,2013-09-29 05:05:00,
2013-09-29 01:10:00,56.9,53.1,30.24,SE,133,0.0,0.0,87,0.00,,,0.00,1760,WeatherCatV1.15B25,2013-09-29 05:10:00,
2013-09-29 01:15:00,56.8,53.0,30.24,SE,133,0.0,0.0,87,0.00,,,0.00,1760,WeatherCatV1.15B25,2013-09-29 05:15:00,
2013-09-29 01:20:00,56.6,52.8,30.24,SE,133,0.0,1.0,87,0.00,,,0.00,1760,WeatherCatV1.15B25,2013-09-29 05:20:00,
2013-09-29 01:25:00,56.4,52.9,30.24,SE,133,0.0,0.0,88,0.00,,,0.00,1760,WeatherCatV1.15B25,2013-09-29 05:25:00,
2013-09-29 01:30:00,56.3,52.8,30.24,SE,133,0.0,0.0,88,0.00,,,0.00,1760,WeatherCatV1.15B25,2013-09-29 05:30:00,
2013-09-29 01:35:00,56.2,52.7,30.24,SE,133,0.0,0.0,88,0.00,,,0.00,1760,WeatherCatV1.15B25,2013-09-29 05:35:00,
2013-09-29 01:40:00,56.2,53.0,30.24,SE,133,0.0,0.0,89,0.00,,,0.00,1760,WeatherCatV1.15B25,2013-09-29 05:40:00,
2013-09-29 01:45:00,56.0,52.8,30.24,SE,135,0.0,0.0,89,0.00,,,0.00,1760,WeatherCatV1.15B25,2013-09-29 05:45:00,
2013-09-29 01:50:00,56.0,52.8,30.23,SSW,203,0.0,0.0,89,0.00,,,0.00,1760,WeatherCatV1.15B25,2013-09-29 05:50:00,
2013-09-29 01:55:00,55.9,52.4,30.23,WSW,240,0.0,0.0,88,0.00,,,0.00,1760,WeatherCatV1.15B25,2013-09-29 05:55:00,
2013-09-29 02:00:00,55.8,52.6,30.23,WSW,247,0.0,0.0,89,0.00,,,0.00,1760,WeatherCatV1.15B25,2013-09-29 06:00:00,
2013-09-29 02:05:00,55.6,52.7,30.23,WSW,250,0.0,0.0,90,0.00,,,0.00,1760,WeatherCatV1.15B25,2013-09-29 06:05:00,
2013-09-29 02:10:00,55.5,52.6,30.23,WSW,251,0.0,0.0,90,0.00,,,0.00,1760,WeatherCatV1.15B25,2013-09-29 06:10:00,
2013-09-29 02:15:00,55.3,52.4,30.23,WSW,251,0.0,0.0,90,0.00,,,0.00,1760,WeatherCatV1.15B25,2013-09-29 06:15:00,
2013-09-29 02:20:00,55.0,52.1,30.23,WSW,251,0.0,0.0,90,0.00,,,0.00,1760,WeatherCatV1.15B25,2013-09-29 06:20:00,
2013-09-29 02:25:00,54.8,51.9,30.22,WSW,251,0.0,0.0,90,0.00,,,0.00,1760,WeatherCatV1.15B25,2013-09-29 06:25:00,
2013-09-29 02:30:00,54.6,51.7,30.22,WSW,251,0.0,0.0,90,0.00,,,0.00,1760,WeatherCatV1.15B25,2013-09-29 06:30:00,
2013-09-29 02:35:00,54.4,51.8,30.22,WSW,251,0.0,0.0,91,0.00,,,0.00,1760,WeatherCatV1.15B25,2013-09-29 06:35:00,
2013-09-29 02:40:00,54.3,51.7,30.21,WSW,251,0.0,0.0,91,0.00,,,0.00,1760,WeatherCatV1.15B25,2013-09-29 06:40:00,
2013-09-29 02:45:00,54.3,51.7,30.21,WSW,251,0.0,0.0,91,0.00,,,0.00,1760,WeatherCatV1.15B25,2013-09-29 06:45:00,
2013-09-29 02:50:00,54.2,51.6,30.21,WSW,251,0.0,0.0,91,0.00,,,0.00,1760,WeatherCatV1.15B25,2013-09-29 06:50:00,
2013-09-29 02:55:00,54.1,51.5,30.21,WSW,251,0.0,0.0,91,0.00,,,0.00,1760,WeatherCatV1.15B25,2013-09-29 06:55:00,
2013-09-29 03:00:00,54.1,51.5,30.21,WSW,251,0.0,0.0,91,0.00,,,0.00,1760,WeatherCatV1.15B25,2013-09-29 07:00:00,
2013-09-29 03:05:00,54.0,51.4,30.21,WSW,251,0.0,0.0,91,0.00,,,0.00,1760,WeatherCatV1.15B25,2013-09-29 07:05:00,
2013-09-29 03:10:00,53.9,51.3,30.21,WSW,251,0.0,0.0,91,0.00,,,0.00,1760,WeatherCatV1.15B25,2013-09-29 07:10:00,
2013-09-29 03:15:00,53.8,51.2,30.21,WSW,251,0.0,0.0,91,0.00,,,0.00,1760,WeatherCatV1.15B25,2013-09-29 07:15:00,
2013-09-29 03:20:00,53.7,51.1,30.21,WSW,251,0.0,0.0,91,0.00,,,0.00,1760,WeatherCatV1.15B25,2013-09-29 07:20:00,
2013-09-29 03:25:00,53.7,51.4,30.21,WSW,251,0.0,0.0,92,0.00,,,0.00,1760,WeatherCatV1.15B25,2013-09-29 07:25:00,
2013-09-29 03:30:00,53.6,51.3,30.20,WSW,251,0.0,0.0,92,0.00,,,0.00,1760,WeatherCatV1.15B25,2013-09-29 07:30:00,
2013-09-29 03:35:00,53.6,51.3,30.20,WSW,251,0.0,0.0,92,0.00,,,0.00,1760,WeatherCatV1.15B25,2013-09-29 07:35:00,
2013-09-29 03:40:00,53.5,51.2,30.20,WSW,251,0.0,0.0,92,0.00,,,0.00,1760,WeatherCatV1.15B25,2013-09-29 07:40:00,
2013-09-29 03:45:00,53.5,51.2,30.20,WSW,251,0.0,0.0,92,0.00,,,0.00,1760,WeatherCatV1.15B25,2013-09-29 07:45:00,
2013-09-29 03:50:00,53.4,51.1,30.20,WSW,251,0.0,0.0,92,0.00,,,0.00,1760,WeatherCatV1.15B25,2013-09-29 07:50:00,
2013-09-29 03:55:00,53.4,51.1,30.20,WSW,251,0.0,0.0,92,0.00,,,0.00,1760,WeatherCatV1.15B25,2013-09-29 07:55:00,
2013-09-29 04:00:00,53.5,51.2,30.20,WSW,251,0.0,0.0,92,0.00,,,0.00,1760,WeatherCatV1.15B25,2013-09-29 08:00:00,
2013-09-29 04:05:00,53.5,51.2,30.20,WSW,251,0.0,0.0,92,0.00,,,0.00,1760,WeatherCatV1.15B25,2013-09-29 08:05:00,
2013-09-29 04:10:00,53.7,51.4,30.20,WSW,251,0.0,0.0,92,0.00,,,0.00,1760,WeatherCatV1.15B25,2013-09-29 08:10:00,
2013-09-29 04:15:00,53.8,51.5,30.20,WSW,251,0.0,0.0,92,0.00,,,0.00,1760,WeatherCatV1.15B25,2013-09-29 08:15:00,
2013-09-29 04:20:00,53.9,51.3,30.20,WSW,251,0.0,0.0,91,0.00,,,0.00,1760,WeatherCatV1.15B25,2013-09-29 08:20:00,
2013-09-29 04:25:00,54.0,51.4,30.19,WSW,251,0.0,0.0,91,0.00,,,0.00,1760,WeatherCatV1.15B25,2013-09-29 08:25:00,
2013-09-29 04:30:00,54.1,51.5,30.19,WSW,251,0.0,0.0,91,0.00,,,0.00,1760,WeatherCatV1.15B25,2013-09-29 08:30:00,
2013-09-29 04:35:00,54.2,51.6,30.19,WSW,251,0.0,0.0,91,0.00,,,0.00,1760,WeatherCatV1.15B25,2013-09-29 08:35:00,
2013-09-29 04:40:00,54.2,51.6,30.19,WSW,251,0.0,0.0,91,0.00,,,0.00,1760,WeatherCatV1.15B25,2013-09-29 08:40:00,
2013-09-29 04:45:00,54.2,51.6,30.19,WSW,251,0.0,0.0,91,0.00,,,0.00,1760,WeatherCatV1.15B25,2013-09-29 08:45:00,
2013-09-29 04:50:00,54.3,51.7,30.19,WSW,251,0.0,0.0,91,0.00,,,0.00,1760,WeatherCatV1.15B25,2013-09-29 08:50:00,
2013-09-29 04:55:00,54.4,51.5,30.19,WSW,251,0.0,0.0,90,0.00,,,0.00,1760,WeatherCatV1.15B25,2013-09-29 08:55:00,
2013-09-29 05:00:00,54.4,51.5,30.19,WSW,251,0.0,0.0,90,0.00,,,0.00,1760,WeatherCatV1.15B25,2013-09-29 09:00:00,
2013-09-29 05:05:00,54.4,51.5,30.19,WSW,251,0.0,0.0,90,0.00,,,0.00,1760,WeatherCatV1.15B25,2013-09-29 09:05:00,
2013-09-29 05:10:00,54.4,51.5,30.19,WSW,251,0.0,0.0,90,0.00,,,0.00,1760,WeatherCatV1.15B25,2013-09-29 09:10:00,
2013-09-29 05:15:00,54.3,51.7,30.18,WSW,251,0.0,0.0,91,0.00,,,0.00,1760,WeatherCatV1.15B25,2013-09-29 09:15:00,
2013-09-29 05:20:00,54.3,51.4,30.19,WSW,251,0.0,0.0,90,0.00,,,0.00,1760,WeatherCatV1.15B25,2013-09-29 09:20:00,
2013-09-29 05:25:00,54.1,51.2,30.19,WSW,251,0.0,0.0,90,0.00,,,0.00,1760,WeatherCatV1.15B25,2013-09-29 09:25:00,
2013-09-29 05:30:00,54.1,51.5,30.19,WSW,251,0.0,0.0,91,0.00,,,0.00,1760,WeatherCatV1.15B25,2013-09-29 09:30:00,
2013-09-29 05:35:00,53.9,51.3,30.18,WSW,251,0.0,0.0,91,0.00,,,0.00,1760,WeatherCatV1.15B25,2013-09-29 09:35:00,
2013-09-29 05:40:00,53.7,51.1,30.19,WSW,251,0.0,0.0,91,0.00,,,0.00,1760,WeatherCatV1.15B25,2013-09-29 09:40:00,
2013-09-29 05:45:00,53.6,51.0,30.18,WSW,251,0.0,0.0,91,0.00,,,0.00,1760,WeatherCatV1.15B25,2013-09-29 09:45:00,
2013-09-29 05:50:00,53.5,51.2,30.18,WSW,251,0.0,0.0,92,0.00,,,0.00,1760,WeatherCatV1.15B25,2013-09-29 09:50:00,
2013-09-29 05:55:00,53.5,51.2,30.19,WSW,251,0.0,0.0,92,0.00,,,0.00,1760,WeatherCatV1.15B25,2013-09-29 09:55:00,
2013-09-29 06:00:00,53.4,51.1,30.19,WSW,251,0.0,0.0,92,0.00,,,0.00,1760,WeatherCatV1.15B25,2013-09-29 10:00:00,
2013-09-29 06:05:00,53.4,51.1,30.19,WSW,251,0.0,0.0,92,0.00,,,0.00,1760,WeatherCatV1.15B25,2013-09-29 10:05:00,
2013-09-29 06:10:00,53.4,51.1,30.19,WSW,251,0.0,0.0,92,0.00,,,0.00,1760,WeatherCatV1.15B25,2013-09-29 10:10:00,
2013-09-29 06:15:00,53.5,51.2,30.19,WSW,251,0.0,0.0,92,0.00,,,0.00,1760,WeatherCatV1.15B25,2013-09-29 10:15:00,
2013-09-29 06:20:00,53.6,51.3,30.19,WSW,251,0.0,0.0,92,0.00,,,0.00,1760,WeatherCatV1.15B25,2013-09-29 10:20:00,
2013-09-29 06:25:00,53.6,51.3,30.19,WSW,251,0.0,0.0,92,0.00,,,0.00,1760,WeatherCatV1.15B25,2013-09-29 10:25:00,
2013-09-29 06:30:00,53.7,51.1,30.19,WSW,251,0.0,0.0,91,0.00,,,0.00,1760,WeatherCatV1.15B25,2013-09-29 10:30:00,
2013-09-29 06:41:00,53.8,51.2,30.20,WSW,251,0.0,0.0,91,0.00,,,0.00,1760,WeatherCatV1.15B25,2013-09-29 10:41:00,
2013-09-29 06:46:00,53.8,51.2,30.19,WSW,252,0.0,0.0,91,0.00,,,0.00,,WeatherCatV1.15B25,2013-09-29 10:46:00,
2013-09-29 06:51:00,53.9,51.3,30.19,WSW,252,0.0,0.0,91,0.00,,,0.00,,WeatherCatV1.15B25,2013-09-29 10:51:00,
2013-09-29 06:56:00,53.9,51.3,30.19,WSW,252,0.0,0.0,91,0.00,,,0.00,,WeatherCatV1.15B25,2013-09-29 10:56:00,
2013-09-29 07:01:00,53.9,51.3,30.19,WSW,252,0.0,0.0,91,0.00,,,0.00,,WeatherCatV1.15B25,2013-09-29 11:01:00,
2013-09-29 07:07:00,53.9,51.3,30.19,WSW,252,0.0,0.0,91,0.00,,,0.00,,WeatherCatV1.15B25,2013-09-29 11:07:00,
2013-09-29 07:12:00,54.0,51.4,30.19,WSW,252,0.0,0.0,91,0.00,,,0.00,,WeatherCatV1.15B25,2013-09-29 11:12:00,
2013-09-29 07:17:00,54.1,51.5,30.19,WSW,252,0.0,0.0,91,0.00,,,0.00,,WeatherCatV1.15B25,2013-09-29 11:17:00,
2013-09-29 07:22:00,54.1,51.5,30.19,WSW,252,0.0,0.0,91,0.00,,,0.00,,WeatherCatV1.15B25,2013-09-29 11:22:00,
2013-09-29 07:27:00,54.2,51.6,30.19,WSW,252,0.0,0.0,91,0.00,,,0.00,,WeatherCatV1.15B25,2013-09-29 11:27:00,
2013-09-29 07:32:00,54.4,51.8,30.19,WSW,252,0.0,0.0,91,0.00,,,0.00,,WeatherCatV1.15B25,2013-09-29 11:32:00,
2013-09-29 07:37:00,54.5,51.9,30.19,WSW,252,0.0,0.0,91,0.00,,,0.00,,WeatherCatV1.15B25,2013-09-29 11:37:00,
2013-09-29 07:42:00,54.6,52.0,30.20,WSW,252,0.0,0.0,91,0.00,,,0.00,,WeatherCatV1.15B25,2013-09-29 11:42:00,
2013-09-29 07:47:00,54.6,52.0,30.20,WSW,252,0.0,0.0,91,0.00,,,0.00,,WeatherCatV1.15B25,2013-09-29 11:47:00,
2013-09-29 07:52:00,54.6,52.0,30.20,WSW,252,0.0,0.0,91,0.00,,,0.00,,WeatherCatV1.15B25,2013-09-29 11:52:00,
2013-09-29 07:57:00,54.7,51.8,30.20,WSW,252,0.0,0.0,90,0.00,,,0.00,,WeatherCatV1.15B25,2013-09-29 11:57:00,
2013-09-29 08:02:00,54.7,51.8,30.20,WSW,252,0.0,0.0,90,0.00,,,0.00,,WeatherCatV1.15B25,2013-09-29 12:02:00,
2013-09-29 08:07:00,54.8,51.9,30.20,WSW,252,0.0,0.0,90,0.00,,,0.00,,WeatherCatV1.15B25,2013-09-29 12:07:00,
2013-09-29 08:12:00,55.0,52.4,30.20,WSW,252,0.0,0.0,91,0.00,,,0.00,,WeatherCatV1.15B25,2013-09-29 12:12:00,
2013-09-29 08:17:00,55.1,52.5,30.20,WSW,252,0.0,0.0,91,0.00,,,0.00,,WeatherCatV1.15B25,2013-09-29 12:17:00,
2013-09-29 08:22:00,55.1,52.5,30.20,WSW,252,0.0,0.0,91,0.00,,,0.00,,WeatherCatV1.15B25,2013-09-29 12:22:00,
2013-09-29 08:27:00,55.2,52.3,30.20,WSW,252,0.0,0.0,90,0.00,,,0.00,,WeatherCatV1.15B25,2013-09-29 12:27:00,
2013-09-29 08:32:00,55.4,52.8,30.20,WSW,252,0.0,0.0,91,0.00,,,0.00,,WeatherCatV1.15B25,2013-09-29 12:32:00,
2013-09-29 08:37:00,55.6,52.7,30.20,WSW,252,0.0,0.0,90,0.00,,,0.00,,WeatherCatV1.15B25,2013-09-29 12:37:00,
2013-09-29 08:42:00,55.8,52.6,30.20,WSW,252,0.0,0.0,89,0.00,,,0.00,,WeatherCatV1.15B25,2013-09-29 12:42:00,
2013-09-29 08:47:00,56.1,53.2,30.20,WSW,252,0.0,0.0,90,0.00,,,0.00,,WeatherCatV1.15B25,2013-09-29 12:47:00,
2013-09-29 08:52:00,56.4,53.5,30.20,WSW,252,0.0,0.0,90,0.00,,,0.00,,WeatherCatV1.15B25,2013-09-29 12:52:00,
2013-09-29 08:57:00,56.6,53.1,30.20,WSW,252,0.0,0.0,88,0.00,,,0.00,,WeatherCatV1.15B25,2013-09-29 12:57:00,
2013-09-29 09:02:00,56.7,52.9,30.20,WSW,252,0.0,0.0,87,0.00,,,0.00,,WeatherCatV1.15B25,2013-09-29 13:02:00,
2013-09-29 09:07:00,56.9,53.4,30.19,WSW,252,0.0,0.0,88,0.00,,,0.00,,WeatherCatV1.15B25,2013-09-29 13:07:00,
2013-09-29 09:12:00,56.8,53.0,30.20,WSW,252,0.0,0.0,87,0.00,,,0.00,,WeatherCatV1.15B25,2013-09-29 13:12:00,
2013-09-29 09:17:00,56.8,53.3,30.20,WSW,252,0.0,0.0,88,0.00,,,0.00,,WeatherCatV1.15B25,2013-09-29 13:17:00,
2013-09-29 09:22:00,56.9,53.1,30.20,WSW,252,0.0,0.0,87,0.00,,,0.00,,WeatherCatV1.15B25,2013-09-29 13:22:00,
2013-09-29 09:27:00,57.2,53.7,30.20,WSW,252,0.0,0.0,88,0.00,,,0.00,,WeatherCatV1.15B25,2013-09-29 13:27:00,
2013-09-29 09:32:00,57.6,53.8,30.19,WSW,252,0.0,0.0,87,0.00,,,0.00,,WeatherCatV1.15B25,2013-09-29 13:32:00,
2013-09-29 09:37:00,58.0,53.8,30.20,WSW,252,0.0,0.0,86,0.00,,,0.00,,WeatherCatV1.15B25,2013-09-29 13:37:00,
2013-09-29 09:42:00,58.3,53.8,30.20,WSW,252,0.0,0.0,85,0.00,,,0.00,,WeatherCatV1.15B25,2013-09-29 13:42:00,
2013-09-29 09:47:00,58.7,54.5,30.20,WSW,252,0.0,0.0,86,0.00,,,0.00,,WeatherCatV1.15B25,2013-09-29 13:47:00,
2013-09-29 09:52:00,59.0,54.8,30.20,WSW,252,0.0,0.0,86,0.00,,,0.00,,WeatherCatV1.15B25,2013-09-29 13:52:00,
2013-09-29 09:57:00,59.0,54.5,30.21,WSW,252,0.0,0.0,85,0.00,,,0.00,,WeatherCatV1.15B25,2013-09-29 13:57:00,
2013-09-29 10:02:00,59.1,54.6,30.21,WSW,252,0.0,0.0,85,0.00,,,0.00,,WeatherCatV1.15B25,2013-09-29 14:02:00,
2013-09-29 10:07:00,59.2,54.4,30.21,WSW,252,0.0,0.0,84,0.00,,,0.00,,WeatherCatV1.15B25,2013-09-29 14:07:00,
2013-09-29 10:12:00,59.4,54.9,30.21,WSW,252,0.0,0.0,85,0.00,,,0.00,,WeatherCatV1.15B25,2013-09-29 14:12:00,
2013-09-29 10:17:00,59.6,55.1,30.20,WSW,252,0.0,0.0,85,0.00,,,0.00,,WeatherCatV1.15B25,2013-09-29 14:17:00,
2013-09-29 10:22:00,59.8,55.9,30.20,WSW,252,0.0,0.0,87,0.00,,,0.00,,WeatherCatV1.15B25,2013-09-29 14:22:00,
2013-09-29 10:27:00,60.0,56.1,30.20,WSW,252,0.0,0.0,87,0.00,,,0.00,,WeatherCatV1.15B25,2013-09-29 14:27:00,
2013-09-29 10:32:00,60.2,56.3,30.20,WSW,252,0.0,0.0,87,0.00,,,0.00,,WeatherCatV1.15B25,2013-09-29 14:32:00,
2013-09-29 10:37:00,60.4,56.2,30.20,WSW,252,0.0,0.0,86,0.00,,,0.00,,WeatherCatV1.15B25,2013-09-29 14:37:00,
2013-09-29 10:42:00,60.5,56.6,30.20,WSW,252,0.0,0.0,87,0.00,,,0.00,,WeatherCatV1.15B25,2013-09-29 14:42:00,
2013-09-29 10:47:00,60.6,56.4,30.20,WSW,252,0.0,0.0,86,0.00,,,0.00,,WeatherCatV1.15B25,2013-09-29 14:47:00,
2013-09-29 10:52:00,60.7,56.8,30.20,WSW,252,0.0,0.0,87,0.00,,,0.00,,WeatherCatV1.15B25,2013-09-29 14:52:00,
2013-09-29 10:57:00,60.7,56.5,30.19,WSW,252,0.0,0.0,86,0.00,,,0.00,,WeatherCatV1.15B25,2013-09-29 14:57:00,
2013-09-29 11:02:00,60.9,56.7,30.19,WSW,252,0.0,0.0,86,0.00,,,0.00,,WeatherCatV1.15B25,2013-09-29 15:02:00,
2013-09-29 11:07:00,61.1,56.6,30.19,WSW,252,0.0,0.0,85,0.00,,,0.00,,WeatherCatV1.15B25,2013-09-29 15:07:00,
2013-09-29 11:12:00,61.1,56.9,30.19,WSW,252,0.0,1.0,86,0.00,,,0.00,,WeatherCatV1.15B25,2013-09-29 15:12:00,
2013-09-29 11:17:00,61.2,57.0,30.19,WSW,252,0.0,0.0,86,0.00,,,0.00,,WeatherCatV1.15B25,2013-09-29 15:17:00,
2013-09-29 11:22:00,61.4,57.5,30.19,WSW,252,0.0,0.0,87,0.00,,,0.00,,WeatherCatV1.15B25,2013-09-29 15:22:00,
2013-09-29 11:27:00,61.4,56.2,30.18,WSW,252,0.0,0.0,83,0.00,,,0.00,,WeatherCatV1.15B25,2013-09-29 15:27:00,
2013-09-29 11:32:00,61.5,56.9,30.18,WSW,252,0.0,1.0,85,0.00,,,0.00,,WeatherCatV1.15B25,2013-09-29 15:32:00,
2013-09-29 11:37:00,61.7,56.8,30.18,WSW,252,0.0,0.0,84,0.00,,,0.00,,WeatherCatV1.15B25,2013-09-29 15:37:00,
2013-09-29 11:42:00,61.8,56.6,30.17,WSW,252,0.0,1.0,83,0.00,,,0.00,,WeatherCatV1.15B25,2013-09-29 15:42:00,
2013-09-29 11:47:00,62.0,56.8,30.17,WSW,252,0.0,0.0,83,0.00,,,0.00,,WeatherCatV1.15B25,2013-09-29 15:47:00,
2013-09-29 11:52:00,62.0,56.8,30.17,WSW,252,0.0,1.0,83,0.00,,,0.00,,WeatherCatV1.15B25,2013-09-29 15:52:00,
2013-09-29 11:57:00,62.0,56.1,30.17,WSW,252,0.0,1.0,81,0.00,,,0.00,,WeatherCatV1.15B25,2013-09-29 15:57:00,
2013-09-29 12:02:00,62.2,57.6,30.17,WSW,252,0.0,1.0,85,0.00,,,0.00,,WeatherCatV1.15B25,2013-09-29 16:02:00,
2013-09-29 12:07:00,62.4,56.5,30.17,WSW,252,0.0,0.0,81,0.00,,,0.00,,WeatherCatV1.15B25,2013-09-29 16:07:00,
2013-09-29 12:12:00,62.5,56.6,30.17,WSW,252,0.0,0.0,81,0.00,,,0.00,,WeatherCatV1.15B25,2013-09-29 16:12:00,
2013-09-29 12:17:00,62.6,56.0,30.17,WSW,252,0.0,0.0,79,0.00,,,0.00,,WeatherCatV1.15B25,2013-09-29 16:17:00,
2013-09-29 12:22:00,62.8,56.5,30.17,WSW,252,0.0,0.0,80,0.00,,,0.00,,WeatherCatV1.15B25,2013-09-29 16:22:00,
2013-09-29 12:27:00,62.7,56.1,30.16,WSW,252,0.0,0.0,79,0.00,,,0.00,,WeatherCatV1.15B25,2013-09-29 16:27:00,
2013-09-29 12:32:00,62.5,56.2,30.16,WSW,252,0.0,0.0,80,0.00,,,0.00,,WeatherCatV1.15B25,2013-09-29 16:32:00,
2013-09-29 12:37:00,62.5,55.2,30.16,WSW,252,0.0,1.0,77,0.00,,,0.00,,WeatherCatV1.15B25,2013-09-29 16:37:00,
2013-09-29 12:42:00,62.3,56.0,30.16,WSW,252,0.0,0.0,80,0.00,,,0.00,,WeatherCatV1.15B25,2013-09-29 16:42:00,
2013-09-29 12:47:00,62.1,56.2,30.16,WSW,252,0.0,1.0,81,0.00,,,0.00,,WeatherCatV1.15B25,2013-09-29 16:47:00,
2013-09-29 12:52:00,62.1,56.2,30.16,WSW,252,0.0,1.0,81,0.00,,,0.00,,WeatherCatV1.15B25,2013-09-29 16:52:00,
2013-09-29 12:57:00,62.0,55.4,30.16,WSW,252,0.0,0.0,79,0.00,,,0.00,,WeatherCatV1.15B25,2013-09-29 16:57:00,
2013-09-29 13:02:00,61.9,55.7,30.16,WSW,253,0.0,0.0,80,0.00,,,0.00,,WeatherCatV1.15B25,2013-09-29 17:02:00,
2013-09-29 13:07:00,61.9,55.7,30.15,WSW,253,0.0,0.0,80,0.00,,,0.00,,WeatherCatV1.15B25,2013-09-29 17:07:00,
2013-09-29 13:12:00,62.3,56.0,30.15,WSW,253,0.0,0.0,80,0.00,,,0.00,,WeatherCatV1.15B25,2013-09-29 17:12:00,
2013-09-29 13:17:00,62.7,56.1,30.15,WSW,253,0.0,0.0,79,0.00,,,0.00,,WeatherCatV1.15B25,2013-09-29 17:17:00,
2013-09-29 13:22:00,63.0,56.0,30.15,WSW,254,0.0,0.0,78,0.00,,,0.00,,WeatherCatV1.15B25,2013-09-29 17:22:00,
2013-09-29 13:27:00,63.0,56.0,30.15,WSW,254,0.0,0.0,78,0.00,,,0.00,,WeatherCatV1.15B25,2013-09-29 17:27:00,
2013-09-29 13:32:00,63.1,56.1,30.15,WSW,254,0.0,0.0,78,0.00,,,0.00,,WeatherCatV1.15B25,2013-09-29 17:32:00,
2013-09-29 13:37:00,63.3,55.2,30.14,South,188,0.0,0.0,75,0.00,,,0.00,,WeatherCatV1.15B25,2013-09-29 17:37:00,
2013-09-29 13:42:00,63.2,54.8,30.14,SE,128,0.0,0.0,74,0.00,,,0.00,,WeatherCatV1.15B25,2013-09-29 17:42:00,
2013-09-29 13:47:00,63.5,55.8,30.14,SE,132,0.0,2.0,76,0.00,,,0.00,,WeatherCatV1.15B25,2013-09-29 17:47:00,
2013-09-29 13:52:00,63.9,56.2,30.14,SE,132,0.0,1.0,76,0.00,,,0.00,,WeatherCatV1.15B25,2013-09-29 17:52:00,
2013-09-29 13:57:00,64.1,55.6,30.13,SE,132,0.0,2.0,74,0.00,,,0.00,,WeatherCatV1.15B25,2013-09-29 17:57:00,
2013-09-29 14:02:00,64.2,54.6,30.13,SE,132,0.0,0.0,71,0.00,,,0.00,,WeatherCatV1.15B25,2013-09-29 18:02:00,
2013-09-29 14:07:00,64.3,55.8,30.12,SE,132,0.0,0.0,74,0.00,,,0.00,,WeatherCatV1.15B25,2013-09-29 18:07:00,
2013-09-29 14:12:00,64.6,56.1,30.12,SE,132,0.0,0.0,74,0.00,,,0.00,,WeatherCatV1.15B25,2013-09-29 18:12:00,
2013-09-29 14:17:00,64.9,56.0,30.12,SE,132,0.0,0.0,73,0.00,,,0.00,,WeatherCatV1.15B25,2013-09-29 18:17:00,
2013-09-29 14:22:00,65.0,55.7,30.12,SE,132,0.0,0.0,72,0.00,,,0.00,,WeatherCatV1.15B25,2013-09-29 18:22:00,
2013-09-29 14:27:00,64.7,55.1,30.12,SE,132,0.0,0.0,71,0.00,,,0.00,,WeatherCatV1.15B25,2013-09-29 18:27:00,
2013-09-29 14:32:00,64.3,56.2,30.12,SE,132,0.0,0.0,75,0.00,,,0.00,,WeatherCatV1.15B25,2013-09-29 18:32:00,
2013-09-29 14:37:00,64.1,56.0,30.12,SE,132,0.0,0.0,75,0.00,,,0.00,,WeatherCatV1.15B25,2013-09-29 18:37:00,
2013-09-29 14:42:00,64.0,56.3,30.12,SE,132,0.0,0.0,76,0.00,,,0.00,,WeatherCatV1.15B25,2013-09-29 18:42:00,
2013-09-29 14:47:00,63.8,56.1,30.12,SE,132,0.0,0.0,76,0.00,,,0.00,,WeatherCatV1.15B25,2013-09-29 18:47:00,
2013-09-29 14:52:00,63.4,55.3,30.12,SE,132,0.0,0.0,75,0.00,,,0.00,,WeatherCatV1.15B25,2013-09-29 18:52:00,
2013-09-29 14:57:00,63.0,55.3,30.12,SE,132,0.0,0.0,76,0.00,,,0.00,,WeatherCatV1.15B25,2013-09-29 18:57:00,
2013-09-29 15:02:00,62.7,55.7,30.12,SE,132,0.0,0.0,78,0.00,,,0.00,,WeatherCatV1.15B25,2013-09-29 19:02:00,
2013-09-29 15:07:00,62.6,56.7,30.12,SE,132,0.0,0.0,81,0.00,,,0.00,,WeatherCatV1.15B25,2013-09-29 19:07:00,
2013-09-29 15:12:00,62.9,56.6,30.11,SE,132,0.0,0.0,80,0.00,,,0.00,,WeatherCatV1.15B25,2013-09-29 19:12:00,
2013-09-29 15:17:00,63.3,56.7,30.11,SE,132,0.0,0.0,79,0.00,,,0.00,,WeatherCatV1.15B25,2013-09-29 19:17:00,
2013-09-29 15:22:00,63.8,56.8,30.11,SE,132,0.0,0.0,78,0.00,,,0.00,,WeatherCatV1.15B25,2013-09-29 19:22:00,
2013-09-29 15:27:00,64.3,56.2,30.11,SE,132,0.0,0.0,75,0.00,,,0.00,,WeatherCatV1.15B25,2013-09-29 19:27:00,
2013-09-29 15:32:00,64.6,56.1,30.11,SE,136,0.0,0.0,74,0.00,,,0.00,,WeatherCatV1.15B25,2013-09-29 19:32:00,
2013-09-29 15:37:00,64.8,55.9,30.10,SE,136,0.0,0.0,73,0.00,,,0.00,,WeatherCatV1.15B25,2013-09-29 19:37:00,
2013-09-29 15:42:00,65.0,56.5,30.10,SE,136,0.0,0.0,74,0.00,,,0.00,,WeatherCatV1.15B25,2013-09-29 19:42:00,
2013-09-29 15:47:00,65.2,56.3,30.10,SE,139,0.0,0.0,73,0.00,,,0.00,,WeatherCatV1.15B25,2013-09-29 19:47:00,
2013-09-29 15:48:00,65.2,56.3,30.10,SE,139,0.0,0.0,73,0.00,,,0.00,,WeatherCatV1.15B25,2013-09-29 19:48:00,
2013-09-29 15:53:00,65.4,56.1,30.10,SE,138,0.0,0.0,72,0.00,,,0.00,,WeatherCatV1.15B25,2013-09-29 19:53:00,
2013-09-29 15:58:00,65.5,57.4,30.10,SE,139,0.0,0.0,75,0.00,,,0.00,,WeatherCatV1.15B25,2013-09-29 19:58:00,
2013-09-29 16:03:00,65.6,55.5,30.09,SE,139,0.0,0.0,70,0.00,,,0.00,,WeatherCatV1.15B25,2013-09-29 20:03:00,
2013-09-29 16:08:00,65.6,57.1,30.09,SE,139,0.0,0.0,74,0.00,,,0.00,,WeatherCatV1.15B25,2013-09-29 20:08:00,
2013-09-29 16:13:00,65.3,55.6,30.09,SE,138,0.0,0.0,71,0.00,,,0.00,,WeatherCatV1.15B25,2013-09-29 20:13:00,
2013-09-29 16:18:00,64.8,55.9,30.09,SE,139,0.0,0.0,73,0.00,,,0.00,,WeatherCatV1.15B25,2013-09-29 20:18:00,
2013-09-29 16:23:00,64.4,54.8,30.09,SE,138,0.0,0.0,71,0.00,,,0.00,,WeatherCatV1.15B25,2013-09-29 20:23:00,
2013-09-29 16:28:00,64.0,54.8,30.09,SE,139,0.0,0.0,72,0.00,,,0.00,,WeatherCatV1.15B25,2013-09-29 20:28:00,
2013-09-29 16:33:00,63.8,55.0,30.09,SE,139,0.0,0.0,73,0.00,,,0.00,,WeatherCatV1.15B25,2013-09-29 20:33:00,
2013-09-29 16:38:00,63.7,54.9,30.08,SE,139,0.0,0.0,73,0.00,,,0.00,,WeatherCatV1.15B25,2013-09-29 20:38:00,
2013-09-29 16:43:00,63.4,55.0,30.08,SE,139,0.0,0.0,74,0.00,,,0.00,,WeatherCatV1.15B25,2013-09-29 20:43:00,
2013-09-29 16:48:00,63.1,55.4,30.08,SE,139,0.0,0.0,76,0.00,,,0.00,,WeatherCatV1.15B25,2013-09-29 20:48:00,
2013-09-29 16:53:00,62.9,54.5,30.08,SE,138,0.0,0.0,74,0.00,,,0.00,,WeatherCatV1.15B25,2013-09-29 20:53:00,
2013-09-29 16:58:00,62.5,54.1,30.08,SE,138,0.0,0.0,74,0.00,,,0.00,,WeatherCatV1.15B25,2013-09-29 20:58:00,
2013-09-29 17:03:00,62.1,53.3,30.08,SE,138,0.0,0.0,73,0.00,,,0.00,,WeatherCatV1.15B25,2013-09-29 21:03:00,
2013-09-29 17:08:00,61.8,53.0,30.08,SE,138,0.0,0.0,73,0.00,,,0.00,,WeatherCatV1.15B25,2013-09-29 21:08:00,
2013-09-29 17:13:00,61.6,53.2,30.08,SE,138,0.0,0.0,74,0.00,,,0.00,,WeatherCatV1.15B25,2013-09-29 21:13:00,
2013-09-29 17:18:00,61.5,53.1,30.08,SE,138,0.0,0.0,74,0.00,,,0.00,,WeatherCatV1.15B25,2013-09-29 21:18:00,
2013-09-29 17:23:00,61.4,53.0,30.08,SE,139,0.0,0.0,74,0.00,,,0.00,,WeatherCatV1.15B25,2013-09-29 21:23:00,
2013-09-29 17:28:00,61.3,52.9,30.08,SE,139,0.0,0.0,74,0.00,,,0.00,,WeatherCatV1.15B25,2013-09-29 21:28:00,
2013-09-29 17:33:00,61.2,52.8,30.08,SE,139,0.0,0.0,74,0.00,,,0.00,,WeatherCatV1.15B25,2013-09-29 21:33:00,
2013-09-29 17:38:00,61.2,53.2,30.08,SE,139,0.0,0.0,75,0.00,,,0.00,,WeatherCatV1.15B25,2013-09-29 21:38:00,
2013-09-29 17:43:00,61.2,53.2,30.08,SE,139,0.0,0.0,75,0.00,,,0.00,,WeatherCatV1.15B25,2013-09-29 21:43:00,
2013-09-29 17:48:00,61.1,53.5,30.08,SE,139,0.0,0.0,76,0.00,,,0.00,,WeatherCatV1.15B25,2013-09-29 21:48:00,
2013-09-29 17:53:00,61.1,53.5,30.08,SE,139,0.0,0.0,76,0.00,,,0.00,,WeatherCatV1.15B25,2013-09-29 21:53:00,
2013-09-29 17:58:00,61.1,53.5,30.08,SE,138,0.0,0.0,76,0.00,,,0.00,,WeatherCatV1.15B25,2013-09-29 21:58:00,
2013-09-29 18:03:00,61.0,53.4,30.08,SE,139,0.0,0.0,76,0.00,,,0.00,,WeatherCatV1.15B25,2013-09-29 22:03:00,
2013-09-29 18:08:00,60.9,53.6,30.08,SE,139,0.0,0.0,77,0.00,,,0.00,,WeatherCatV1.15B25,2013-09-29 22:08:00,
2013-09-29 18:13:00,60.7,53.4,30.08,SE,139,0.0,0.0,77,0.00,,,0.00,,WeatherCatV1.15B25,2013-09-29 22:13:00,
2013-09-29 18:18:00,60.5,53.2,30.08,SE,138,0.0,0.0,77,0.00,,,0.00,,WeatherCatV1.15B25,2013-09-29 22:18:00,
2013-09-29 18:23:00,60.4,53.5,30.08,SE,139,0.0,0.0,78,0.00,,,0.00,,WeatherCatV1.15B25,2013-09-29 22:23:00,
2013-09-29 18:28:00,60.3,53.8,30.08,SE,138,0.0,0.0,79,0.00,,,0.00,,WeatherCatV1.15B25,2013-09-29 22:28:00,
2013-09-29 18:33:00,60.0,53.8,30.08,SE,138,0.0,0.0,80,0.00,,,0.00,,WeatherCatV1.15B25,2013-09-29 22:33:00,
2013-09-29 18:38:00,59.6,53.8,30.08,SE,139,0.0,0.0,81,0.00,,,0.00,,WeatherCatV1.15B25,2013-09-29 22:38:00,
2013-09-29 18:43:00,59.4,53.6,30.08,SE,139,0.0,0.0,81,0.00,,,0.00,,WeatherCatV1.15B25,2013-09-29 22:43:00,
2013-09-29 18:48:00,59.2,53.7,30.08,SE,139,0.0,0.0,82,0.00,,,0.00,,WeatherCatV1.15B25,2013-09-29 22:48:00,
2013-09-29 18:53:00,59.0,53.8,30.08,SE,138,0.0,0.0,83,0.00,,,0.00,,WeatherCatV1.15B25,2013-09-29 22:53:00,
2013-09-29 18:58:00,58.6,54.1,30.08,ESE,122,0.0,1.0,85,0.00,,,0.00,,WeatherCatV1.15B25,2013-09-29 22:58:00,
2013-09-29 19:03:00,58.2,54.3,30.08,ESE,119,0.0,0.0,87,0.00,,,0.00,,WeatherCatV1.15B25,2013-09-29 23:03:00,
2013-09-29 19:08:00,57.9,54.4,30.08,ESE,114,0.0,1.0,88,0.00,,,0.00,,WeatherCatV1.15B25,2013-09-29 23:08:00,
2013-09-29 19:13:00,57.6,54.4,30.08,ESE,114,0.0,0.0,89,0.00,,,0.00,,WeatherCatV1.15B25,2013-09-29 23:13:00,
2013-09-29 19:18:00,57.4,54.2,30.09,East,97,0.0,0.0,89,0.00,,,0.00,,WeatherCatV1.15B25,2013-09-29 23:18:00,
2013-09-29 19:23:00,57.3,54.4,30.09,East,97,0.0,0.0,90,0.00,,,0.00,,WeatherCatV1.15B25,2013-09-29 23:23:00,
2013-09-29 19:28:00,57.1,54.2,30.09,East,96,0.0,0.0,90,0.00,,,0.00,,WeatherCatV1.15B25,2013-09-29 23:28:00,
2013-09-29 19:33:00,57.0,54.1,30.09,SE,124,0.0,1.0,90,0.00,,,0.00,,WeatherCatV1.15B25,2013-09-29 23:33:00,
2013-09-29 19:38:00,56.8,53.9,30.09,ESE,121,0.0,0.0,90,0.00,,,0.00,,WeatherCatV1.15B25,2013-09-29 23:38:00,
2013-09-29 19:43:00,56.7,53.8,30.09,ESE,121,0.0,0.0,90,0.00,,,0.00,,WeatherCatV1.15B25,2013-09-29 23:43:00,
2013-09-29 19:48:00,56.7,54.1,30.10,ESE,102,0.0,0.0,91,0.00,,,0.00,,WeatherCatV1.15B25,2013-09-29 23:48:00,
2013-09-29 19:53:00,56.5,53.6,30.09,ESE,112,0.0,1.0,90,0.00,,,0.00,,WeatherCatV1.15B25,2013-09-29 23:53:00,
2013-09-29 19:58:00,56.3,53.4,30.09,ESE,112,0.0,0.0,90,0.00,,,0.00,,WeatherCatV1.15B25,2013-09-29 23:58:00,
2013-09-29 20:03:00,56.0,53.4,30.10,ESE,112,0.0,0.0,91,0.00,,,0.00,,WeatherCatV1.15B25,2013-09-30 00:03:00,
2013-09-29 20:08:00,55.8,53.2,30.10,ESE,111,0.0,0.0,91,0.00,,,0.00,,WeatherCatV1.15B25,2013-09-30 00:08:00,
2013-09-29 20:13:00,55.7,53.1,30.10,ESE,111,0.0,0.0,91,0.00,,,0.00,,WeatherCatV1.15B25,2013-09-30 00:13:00,
2013-09-29 20:18:00,55.6,53.0,30.10,ESE,113,0.0,0.0,91,0.00,,,0.00,,WeatherCatV1.15B25,2013-09-30 00:18:00,
2013-09-29 20:23:00,55.5,52.9,30.10,ESE,117,0.0,1.0,91,0.00,,,0.00,,WeatherCatV1.15B25,2013-09-30 00:23:00,
2013-09-29 20:28:00,55.5,52.6,30.10,ESE,117,0.0,0.0,90,0.00,,,0.00,,WeatherCatV1.15B25,2013-09-30 00:28:00,
2013-09-29 20:33:00,55.4,52.8,30.10,ESE,117,0.0,0.0,91,0.00,,,0.00,,WeatherCatV1.15B25,2013-09-30 00:33:00,
2013-09-29 20:38:00,55.3,52.4,30.10,ESE,117,0.0,0.0,90,0.00,,,0.00,,WeatherCatV1.15B25,2013-09-30 00:38:00,
2013-09-29 20:43:00,55.1,52.5,30.10,ESE,111,0.0,1.0,91,0.00,,,0.00,,WeatherCatV1.15B25,2013-09-30 00:43:00,
2013-09-29 20:48:00,54.9,52.3,30.10,ESE,111,0.0,0.0,91,0.00,,,0.00,,WeatherCatV1.15B25,2013-09-30 00:48:00,
2013-09-29 20:53:00,54.8,51.9,30.10,ESE,111,0.0,0.0,90,0.00,,,0.00,,WeatherCatV1.15B25,2013-09-30 00:53:00,
2013-09-29 20:58:00,54.8,51.6,30.09,ESE,111,0.0,0.0,89,0.00,,,0.00,,WeatherCatV1.15B25,2013-09-30 00:58:00,
2013-09-29 21:03:00,54.7,51.5,30.09,ESE,111,0.0,0.0,89,0.00,,,0.00,,WeatherCatV1.15B25,2013-09-30 01:03:00,
2013-09-29 21:08:00,54.6,50.8,30.10,ESE,112,0.0,0.0,87,0.00,,,0.00,,WeatherCatV1.15B25,2013-09-30 01:08:00,
2013-09-29 21:13:00,54.6,50.8,30.10,ESE,112,0.0,0.0,87,0.00,,,0.00,,WeatherCatV1.15B25,2013-09-30 01:13:00,
2013-09-29 21:18:00,54.5,50.4,30.10,ESE,112,0.0,0.0,86,0.00,,,0.00,,WeatherCatV1.15B25,2013-09-30 01:18:00,
2013-09-29 21:23:00,54.4,50.3,30.10,ESE,112,0.0,0.0,86,0.00,,,0.00,,WeatherCatV1.15B25,2013-09-30 01:23:00,
2013-09-29 21:28:00,54.4,50.0,30.09,ESE,112,0.0,0.0,85,0.00,,,0.00,,WeatherCatV1.15B25,2013-09-30 01:28:00,
2013-09-29 21:33:00,54.4,49.7,30.09,ESE,111,0.0,0.0,84,0.00,,,0.00,,WeatherCatV1.15B25,2013-09-30 01:33:00,
2013-09-29 21:38:00,54.5,49.4,30.10,ESE,112,0.0,1.0,83,0.00,,,0.00,,WeatherCatV1.15B25,2013-09-30 01:38:00,
2013-09-29 21:43:00,54.5,49.4,30.09,ESE,112,0.0,1.0,83,0.00,,,0.00,,WeatherCatV1.15B25,2013-09-30 01:43:00,
2013-09-29 21:48:00,54.4,49.0,30.10,ESE,112,0.0,0.0,82,0.00,,,0.00,,WeatherCatV1.15B25,2013-09-30 01:48:00,
2013-09-29 21:53:00,54.4,48.7,30.10,ESE,112,0.0,0.0,81,0.00,,,0.00,,WeatherCatV1.15B25,2013-09-30 01:53:00,
2013-09-29 21:58:00,54.4,49.0,30.10,ESE,111,0.0,0.0,82,0.00,,,0.00,,WeatherCatV1.15B25,2013-09-30 01:58:00,
2013-09-29 22:03:00,54.4,48.7,30.10,ESE,111,0.0,0.0,81,0.00,,,0.00,,WeatherCatV1.15B25,2013-09-30 02:03:00,
2013-09-29 22:08:00,54.3,48.6,30.10,ESE,112,0.0,0.0,81,0.00,,,0.00,,WeatherCatV1.15B25,2013-09-30 02:08:00,
2013-09-29 22:13:00,54.2,48.8,30.10,ESE,111,0.0,0.0,82,0.00,,,0.00,,WeatherCatV1.15B25,2013-09-30 02:13:00,
2013-09-29 22:18:00,54.0,48.3,30.10,ESE,112,0.0,0.0,81,0.00,,,0.00,,WeatherCatV1.15B25,2013-09-30 02:18:00,
2013-09-29 22:23:00,53.9,47.9,30.10,ESE,112,0.0,0.0,80,0.00,,,0.00,,WeatherCatV1.15B25,2013-09-30 02:23:00,
2013-09-29 22:28:00,53.9,48.2,30.10,ESE,112,0.0,0.0,81,0.00,,,0.00,,WeatherCatV1.15B25,2013-09-30 02:28:00,
2013-09-29 22:33:00,53.8,47.8,30.10,ESE,111,0.0,0.0,80,0.00,,,0.00,,WeatherCatV1.15B25,2013-09-30 02:33:00,
2013-09-29 22:38:00,53.8,47.4,30.09,ESE,112,0.0,0.0,79,0.00,,,0.00,,WeatherCatV1.15B25,2013-09-30 02:38:00,
2013-09-29 22:43:00,53.8,47.4,30.10,ESE,112,0.0,0.0,79,0.00,,,0.00,,WeatherCatV1.15B25,2013-09-30 02:43:00,
2013-09-29 22:48:00,53.8,47.1,30.10,ESE,111,0.0,0.0,78,0.00,,,0.00,,WeatherCatV1.15B25,2013-09-30 02:48:00,
2013-09-29 22:53:00,53.8,46.8,30.09,ESE,111,0.0,0.0,77,0.00,,,0.00,,WeatherCatV1.15B25,2013-09-30 02:53:00,
2013-09-29 22:58:00,53.8,46.4,30.09,ESE,111,0.0,0.0,76,0.00,,,0.00,,WeatherCatV1.15B25,2013-09-30 02:58:00,
2013-09-29 23:03:00,53.9,47.2,30.09,ESE,112,0.0,0.0,78,0.00,,,0.00,,WeatherCatV1.15B25,2013-09-30 03:03:00,
2013-09-29 23:08:00,53.6,46.9,30.09,ESE,112,0.0,0.0,78,0.00,,,0.00,,WeatherCatV1.15B25,2013-09-30 03:08:00,
2013-09-29 23:13:00,53.3,47.3,30.09,ESE,111,0.0,0.0,80,0.00,,,0.00,,WeatherCatV1.15B25,2013-09-30 03:13:00,
2013-09-29 23:18:00,53.2,47.8,30.09,ESE,112,0.0,0.0,82,0.00,,,0.00,,WeatherCatV1.15B25,2013-09-30 03:18:00,
2013-09-29 23:23:00,53.1,47.8,30.09,ESE,110,0.0,1.0,82,0.00,,,0.00,,WeatherCatV1.15B25,2013-09-30 03:23:00,
2013-09-29 23:28:00,53.1,48.4,30.09,ESE,111,0.0,0.0,84,0.00,,,0.00,,WeatherCatV1.15B25,2013-09-30 03:28:00,
2013-09-29 23:33:00,53.1,48.7,30.09,ESE,111,0.0,0.0,85,0.00,,,0.00,,WeatherCatV1.15B25,2013-09-30 03:33:00,
2013-09-29 23:38:00,53.1,49.0,30.09,ESE,111,0.0,0.0,86,0.00,,,0.00,,WeatherCatV1.15B25,2013-09-30 03:38:00,
2013-09-29 23:43:00,53.0,48.6,30.09,ESE,111,0.0,0.0,85,0.00,,,0.00,,WeatherCatV1.15B25,2013-09-30 03:43:00,
2013-09-29 23:48:00,53.0,48.6,30.09,ESE,111,0.0,0.0,85,0.00,,,0.00,,WeatherCatV1.15B25,2013-09-30 03:48:00,
2013-09-29 23:53:00,53.1,48.7,30.09,ESE,110,0.0,0.0,85,0.00,,,0.00,,WeatherCatV1.15B25,2013-09-30 03:53:00,
2013-09-29 23:58:00,53.1,48.7,30.09,ESE,110,0.0,0.0,85,0.00,,,0.00,,WeatherCatV1.15B25,2013-09-30 03:58:00,